CZ-3B DEB, 40167

Orbit data source: Space-Track

CZ-3B DEB, 40167 is space debris in HEO originally from a launch on Sat, 04 Sep 2010 UTC launched from the Xichang Space Center, China (XSC). Debris objects in space refer to the collection of defunct objects orbiting the Earth. Examples of debris include non-operational satellites, rocket bodies, and fragments generated from explosions, collisions, or faulty payload assembly.

Loading next visibility...
Identifier
40167, 2010-042U
Orbit
HEO
Country
Flag of CNCN / PRC
Related business
Manufacturer
CALT
Mission
Spacecraft
Bus & Motor
Unknown
Mass
Unknown
Launch date (UTC)
2010-09-04 (15 years ago)
Launch vehicle
Unknown
Launch site
Xichang Space Center, China (XSC)
Object type
Payload
Rocket body
Debris
Shape & HBR
Unknown shape, 0.2 m
Radar Cross Section
Medium (>0.1 m² and <1 m²)

Expand to show TLE details & history
Last TLE update: 1 day ago

TLE from 1 day ago
0 CZ-3B DEB
1 40167U 10042U   25286.56286389 -.00000260  00000-0  00000-0 0  9994
2 40167  27.3106 333.7884 7167664 228.3340  43.3039  1.93653584 90784
Epoch: 2025-10-13T13:30Z
TLE epoch observation values (Epoch: 2025-10-13T13:30:31.440Z)
Latitude
-0°
Longitude
108.79799°
Altitude
18,851.743 km
Speed
4.115 km/s
True Right ascension
22h 15m 10s
True Declination
0° 00' 00"
Sunlit
Object was in daylight at epoch
Visualization orbit readout
Latitude
Unknown
Longitude
Unknown
Altitude
Unknown
Speed
Unknown
Apparent Right ascension
Unknown
Apparent Declination
Unknown
Sunlit
N/A
Visualization observer readout
Local Sidereal Time
09:57:37
Azimuth
Unknown
Elevation
Unknown
Doppler factor
Unknown
Orbital elements
Apogee altitude
40,303.761 km
Perigee altitude
1,323.483 km
Semi-major axis
27,191.759 km
Eccentricity
0.71677
Inclination
27.3106°
RAAN
333.7884°
Arg. of periapsis
228.334°
True anomaly
131.5583°
Mean anomaly
43.3039°
Eccentric anomaly
84.15832°
Mean motion
0.48405 °/min
Orbital period
743.73 mins
BSTAR
0
Loading maneuver chart data...
Computing Atmospheric mass density...
Loading historical data...
Loading historical data...
Loading historical data...
Loading historical data...
Loading historical data...
Loading historical data...
Loading historical data...

Documentation

Showing up to 5 results
|